OYKAM EKVH-EKVH

Flight info

Callsign OYKAM
Flight time N/A
Altitude 5000
Route EKVH
Aircraft C208/L-SDE1FGHILORVWXY/LB1

Departure

Time 2026-04-12 08:59
Airport Vesthimmerland Airfield (EKVH)

Arrival

Time N/A
Airport Vesthimmerland Airfield (EKVH)
Time Latitude Longitude Altitude Speed Heading
2026-04-12 08:52 56.84711 9.46568 112 ft 0 kts 94°
2026-04-12 08:55 56.84706 9.46572 111 ft 3 kts 201°
2026-04-12 08:55 56.84655 9.46520 110 ft 17 kts 193°
2026-04-12 08:55 56.84610 9.46496 109 ft 1 kts 218°
2026-04-12 08:55 56.84614 9.46402 111 ft 15 kts 285°
2026-04-12 08:56 56.84656 9.46149 113 ft 27 kts 288°
2026-04-12 08:56 56.84709 9.45843 117 ft 19 kts 287°
2026-04-12 08:56 56.84742 9.45646 116 ft 20 kts 285°
2026-04-12 08:56 56.84794 9.45332 125 ft 31 kts 288°
2026-04-12 08:57 56.84813 9.45198 132 ft 9 kts 117°
2026-04-12 08:57 56.84809 9.45250 130 ft 0 kts 109°
2026-04-12 08:59 56.84775 9.45455 122 ft 47 kts 107°
2026-04-12 08:59 56.84620 9.46411 228 ft 95 kts 112°
2026-04-12 08:59 56.84559 9.47535 809 ft 91 kts 72°
2026-04-12 09:00 56.85137 9.47949 1253 ft 102 kts 354°
2026-04-12 09:00 56.85908 9.47760 1458 ft 122 kts 347°
2026-04-12 09:00 56.86838 9.47360 1615 ft 147 kts 345°
2026-04-12 09:00 56.87844 9.47006 1951 ft 149 kts
2026-04-12 09:01 56.88841 9.47557 2239 ft 152 kts 24°
2026-04-12 09:01 56.89846 9.48273 2470 ft 157 kts 18°
2026-04-12 09:01 56.90898 9.48802 2507 ft 158 kts 12°
2026-04-12 09:01 56.92027 9.49086 2155 ft 170 kts
2026-04-12 09:02 56.93124 9.49785 1904 ft 166 kts 37°
2026-04-12 09:02 56.93866 9.51346 1678 ft 162 kts 69°
2026-04-12 09:02 56.94058 9.53304 1480 ft 155 kts 101°
2026-04-12 09:02 56.93645 9.55055 1291 ft 149 kts 134°
2026-04-12 09:03 56.92799 9.56055 1094 ft 145 kts 167°
2026-04-12 09:03 56.91839 9.55981 1081 ft 137 kts 201°
2026-04-12 09:03 56.91118 9.54875 1083 ft 139 kts 236°
2026-04-12 09:03 56.90912 9.53175 1088 ft 144 kts 273°
2026-04-12 09:04 56.91312 9.51487 1081 ft 150 kts 310°
2026-04-12 09:04 56.92147 9.50329 1076 ft 152 kts 328°
2026-04-12 09:04 56.93102 9.49499 1097 ft 153 kts 349°
2026-04-12 09:04 56.94083 9.49982 1153 ft 149 kts 37°
2026-04-12 09:05 56.94991 9.50689 1125 ft 138 kts
2026-04-12 09:05 56.95932 9.50744 1120 ft 135 kts
2026-04-12 09:05 56.96855 9.50743 1132 ft 130 kts 355°
2026-04-12 09:05 56.97755 9.50638 1152 ft 129 kts 358°
2026-04-12 09:06 56.98654 9.50635 1172 ft 129 kts
2026-04-12 09:06 56.99542 9.50650 1185 ft 127 kts 360°
2026-04-12 09:06 57.00422 9.50662 1215 ft 127 kts 359°
2026-04-12 09:06 57.01300 9.50672 1240 ft 125 kts
2026-04-12 09:07 57.02177 9.50683 1265 ft 126 kts 359°
2026-04-12 09:07 57.03041 9.50691 1299 ft 122 kts
2026-04-12 09:07 57.03855 9.50704 1332 ft 113 kts 359°
2026-04-12 09:07 57.04617 9.50708 1360 ft 108 kts 358°
2026-04-12 09:08 57.05372 9.50709 1382 ft 109 kts
2026-04-12 09:08 57.06126 9.50715 1407 ft 108 kts
2026-04-12 09:08 57.06862 9.50852 1405 ft 107 kts 29°
2026-04-12 09:08 57.07308 9.51852 1420 ft 99 kts 74°
2026-04-12 09:09 57.07380 9.53076 1445 ft 97 kts 91°
2026-04-12 09:09 57.07475 9.54320 1461 ft 105 kts 88°
2026-04-12 09:09 57.07571 9.55749 1501 ft 118 kts 88°
2026-04-12 09:09 57.07677 9.57297 1534 ft 126 kts 87°
2026-04-12 09:10 57.07787 9.58938 1543 ft 131 kts 88°
2026-04-12 09:10 57.07898 9.60613 1545 ft 133 kts 88°
2026-04-12 09:10 57.08020 9.62302 1542 ft 136 kts 86°
2026-04-12 09:10 57.08167 9.64040 1546 ft 136 kts 85°
2026-04-12 09:11 57.08338 9.65725 1546 ft 137 kts 83°
2026-04-12 09:11 57.08527 9.67454 1542 ft 138 kts 87°
2026-04-12 09:11 57.08578 9.69216 1544 ft 138 kts 92°
2026-04-12 09:11 57.08621 9.70983 1468 ft 138 kts 91°
2026-04-12 09:12 57.08700 9.72668 1284 ft 128 kts 89°
2026-04-12 09:12 57.08792 9.74259 1104 ft 122 kts 88°
2026-04-12 09:12 57.08891 9.75753 926 ft 115 kts 87°
2026-04-12 09:12 57.08982 9.77193 757 ft 111 kts 90°
2026-04-12 09:13 57.09070 9.78545 608 ft 100 kts 88°
2026-04-12 09:13 57.09144 9.79736 476 ft 86 kts 88°
2026-04-12 09:13 57.09210 9.80696 362 ft 64 kts 92°
2026-04-12 09:13 57.09255 9.81413 249 ft 54 kts 92°
2026-04-12 09:14 57.09304 9.82092 203 ft 54 kts 91°
2026-04-12 09:14 57.09346 9.82783 139 ft 54 kts 93°
2026-04-12 09:14 57.09383 9.83419 48 ft 50 kts 92°
2026-04-12 09:14 57.09430 9.84039 34 ft 48 kts 93°
2026-04-12 09:15 57.09470 9.84659 27 ft 51 kts 91°
2026-04-12 09:15 57.09497 9.85305 20 ft 49 kts 91°
2026-04-12 09:15 57.09547 9.86011 42 ft 77 kts 86°
2026-04-12 09:15 57.09284 9.86856 329 ft 100 kts 180°
2026-04-12 09:16 57.08915 9.86823 532 ft 105 kts 163°